Location: Gallinara
(44.0333°N, 8.2333°E)
Time: 16:22:59
(UTC+00:00)

Cosmos 2322 Rocket - Pass Details

Date: 25 September 2020
Orbit: 831 x 852 km, 71.0° (Epoch: 29 October)

Event Time Altitude Azimuth Distance (km) Brightness Sun altitude
Exits shadow 02:54:00 55° 180° (S) 1,017 2.4 -25.9°
Maximum altitude 02:55:16 76° 112° (ESE) 878 2.2 -25.7°
Drops below altitude 10° 03:00:58 10° 28° (NNE) 2,485 5.3 -24.8°
Sets 03:03:26 0° 27° (NNE) 3,427 6.1 -24.3°
